Starlink 11112

operational
NORAD ID: 60115 Int'l Des: 2024-118 Owner: SPXS Country: US Constellation: starlink
LEOCIRCULAR

Über Starlink 11112

Beschreibung wird geladen...

Live-Position

3D-Globus wird geladen...

Nächste Überflüge

Höhenverlauf

Altitude vs Time

uPlot chart will show altitude changes over time

Zweizeiliger Elementsatz

1 60115U 24118C 25258.55490380 .00001034 00000-0 13387-4 0 9999
2 60115 53.1590 4.8176 0001055 92.2523 267.8615 15.69719285 70485
Epoch: 15. Sept. 2025 • Age: 30 hours

Aktueller Status

Höhe 370.1 km
Geschwindigkeit 7.69 km/s
Subsatellitenpunkt -31.80°S, 39.49°E
Startdatum 24. Juni 2024
Alter 1.2 years
Typ internet

Technische Details

Klassifizierung Payload
Masse 960.00 kg
Trockenmasse 910.00 kg
Gesamtmasse 960.00 kg
Länge 0.30 m
Durchmesser 4.10 m
Spannweite 29.00 m
Form Box + pan
Hersteller SPXS
Bus-Typ Starlink V2MD
Phasenstatus In Orbit
Besitzer/Staat SPXS/US

Große Konstellationen

Loading constellations...